When you browse on this site, cookies collect data to enhance your experience and personalize the content and advertising you see.
Visit our Privacy Policy to learn more. By continuing to use the site, you agree to this use of cookies and data.
  • In Portugal
  • List of Countries
  • For 7 days
  • Water Temperature
  • Weather Map
  • Weather Widgets
  • user-avatar
    Login

    Hourly Weather Levzha

    Today, 4 June, Thursday

    Time Temperature Precipitation Wind Pressure Humidity
    00:00 +15°C° 0.4 mm 7 mps 739 mmHg 94%
    01:00 +15°C° 0.4 mm 6 mps 738 mmHg 94%
    02:00 +15°C° 0.4 mm 6 mps 738 mmHg 94%
    03:00 +15°C° 0 mm 4 mps 738 mmHg 93%
    04:00 +15°C° 0.3 mm 5 mps 738 mmHg 93%
    05:00 +16°C° 0.3 mm 5 mps 737 mmHg 93%
    06:00 +16°C° 0.3 mm 6 mps 737 mmHg 93%
    07:00 +16°C° 0.1 mm 5 mps 737 mmHg 92%
    08:00 +17°C° 0.1 mm 5 mps 737 mmHg 92%
    09:00 +18°C° 0 mm 4 mps 738 mmHg 92%
    10:00 +19°C° 0.1 mm 4 mps 738 mmHg 90%
    11:00 +19°C° 0.1 mm 4 mps 738 mmHg 88%
    12:00 +20°C° 0.1 mm 4 mps 738 mmHg 87%
    13:00 +20°C° 0.5 mm 4 mps 738 mmHg 86%
    14:00 +20°C° 0.5 mm 5 mps 738 mmHg 85%
    15:00 +20°C° 0.5 mm 5 mps 738 mmHg 84%
    16:00 +20°C° 0 mm 5 mps 738 mmHg 84%
    17:00 +20°C° 0 mm 4 mps 738 mmHg 83%
    18:00 +20°C° 0 mm 4 mps 739 mmHg 82%
    19:00 +19°C° 0 mm 4 mps 739 mmHg 85%
    20:00 +17°C° 0 mm 3 mps 740 mmHg 88%
    21:00 +16°C° 0 mm 3 mps 740 mmHg 91%
    22:00 +14°C° 0 mm 3 mps 741 mmHg 92%
    23:00 +14°C° 0 mm 3 mps 741 mmHg 93%

    Tomorrow, 5 June, Friday

    Time Temperature Precipitation Wind Pressure Humidity
    00:00 +13°C° 0 mm 3 mps 742 mmHg 93%
    01:00 +14°C° 0 mm 2 mps 742 mmHg 93%
    02:00 +13°C° 0 mm 2 mps 743 mmHg 93%
    03:00 +13°C° 0 mm 2 mps 743 mmHg 93%
    04:00 +13°C° 0 mm 2 mps 744 mmHg 91%
    05:00 +14°C° 0 mm 2 mps 744 mmHg 90%
    06:00 +15°C° 0 mm 2 mps 744 mmHg 88%
    07:00 +16°C° 0 mm 2 mps 744 mmHg 84%
    08:00 +18°C° 0 mm 2 mps 745 mmHg 79%
    09:00 +19°C° 0 mm 2 mps 745 mmHg 75%
    10:00 +20°C° 0.2 mm 2 mps 745 mmHg 72%
    11:00 +20°C° 0.2 mm 3 mps 745 mmHg 70%
    12:00 +21°C° 0.2 mm 3 mps 745 mmHg 68%
    13:00 +21°C° 0.4 mm 3 mps 744 mmHg 69%
    14:00 +21°C° 0.4 mm 3 mps 744 mmHg 69%
    15:00 +21°C° 0.4 mm 3 mps 744 mmHg 70%
    16:00 +20°C° 0.6 mm 3 mps 744 mmHg 74%
    17:00 +20°C° 0.6 mm 3 mps 744 mmHg 78%
    18:00 +19°C° 0.6 mm 3 mps 744 mmHg 82%
    19:00 +18°C° 0.1 mm 3 mps 744 mmHg 85%
    20:00 +16°C° 0.1 mm 2 mps 744 mmHg 88%
    21:00 +15°C° 0.1 mm 2 mps 744 mmHg 91%
    22:00 +15°C° 0 mm 2 mps 744 mmHg 92%
    23:00 +14°C° 0 mm 2 mps 744 mmHg 92%

    Day after tomorrow, 6 June, Saturday

    Time Temperature Precipitation Wind Pressure Humidity
    00:00 +14°C° 0 mm 2 mps 744 mmHg 93%
    01:00 +13°C° 0 mm 2 mps 744 mmHg 93%
    02:00 +13°C° 0 mm 2 mps 745 mmHg 93%
    03:00 +12°C° 0 mm 2 mps 745 mmHg 94%
    04:00 +13°C° 0 mm 2 mps 745 mmHg 92%
    05:00 +14°C° 0 mm 2 mps 745 mmHg 91%
    06:00 +14°C° 0 mm 2 mps 745 mmHg 90%
    07:00 +14°C° 0 mm 3 mps 745 mmHg 88%
    08:00 +15°C° 0 mm 4 mps 746 mmHg 86%
    09:00 +17°C° 0 mm 4 mps 746 mmHg 84%
    10:00 +18°C° 0.2 mm 4 mps 746 mmHg 82%
    11:00 +19°C° 0.2 mm 5 mps 746 mmHg 80%
    12:00 +19°C° 0.2 mm 5 mps 746 mmHg 78%
    13:00 +20°C° 0.2 mm 5 mps 746 mmHg 78%
    14:00 +20°C° 0.2 mm 4 mps 746 mmHg 78%
    15:00 +20°C° 0.2 mm 4 mps 746 mmHg 78%
    16:00 +20°C° 0.1 mm 3 mps 746 mmHg 79%
    17:00 +20°C° 0.1 mm 3 mps 746 mmHg 80%
    18:00 +20°C° 0.1 mm 2 mps 746 mmHg 81%
    19:00 +19°C° 0 mm 2 mps 746 mmHg 84%
    20:00 +17°C° 0 mm 2 mps 746 mmHg 88%
    21:00 +16°C° 0 mm 1 mps 747 mmHg 91%
    22:00 +16°C° 0 mm 1 mps 747 mmHg 92%
    23:00 +15°C° 0 mm 1 mps 747 mmHg 93%

    7 June, Sunday

    Time Temperature Precipitation Wind Pressure Humidity
    00:00 +15°C° 0 mm 1 mps 747 mmHg 94%
    01:00 +15°C° 0 mm 1 mps 747 mmHg 94%
    02:00 +15°C° 0 mm 1 mps 747 mmHg 95%
    03:00 +15°C° 0 mm 2 mps 748 mmHg 95%
    04:00 +16°C° 0 mm 2 mps 748 mmHg 94%
    05:00 +16°C° 0 mm 2 mps 748 mmHg 93%
    06:00 +17°C° 0 mm 2 mps 748 mmHg 93%
    07:00 +19°C° 0 mm 2 mps 748 mmHg 89%
    08:00 +20°C° 0 mm 2 mps 749 mmHg 85%
    09:00 +21°C° 0 mm 2 mps 749 mmHg 82%
    10:00 +23°C° 0.2 mm 2 mps 749 mmHg 78%
    11:00 +24°C° 0.2 mm 2 mps 749 mmHg 74%
    12:00 +25°C° 0.2 mm 2 mps 749 mmHg 70%
    13:00 +25°C° 1.2 mm 1 mps 749 mmHg 70%
    14:00 +25°C° 1.2 mm 1 mps 749 mmHg 71%
    15:00 +25°C° 1.2 mm 1 mps 749 mmHg 71%
    16:00 +25°C° 0.1 mm 1 mps 749 mmHg 74%
    17:00 +25°C° 0.1 mm 1 mps 748 mmHg 76%
    18:00 +25°C° 0.1 mm 1 mps 748 mmHg 79%
    19:00 +23°C° 0.2 mm 1 mps 748 mmHg 82%
    20:00 +22°C° 0.2 mm 1 mps 748 mmHg 84%
    21:00 +20°C° 0.2 mm 1 mps 749 mmHg 87%
    22:00 +20°C° 0.2 mm 1 mps 749 mmHg 88%
    23:00 +19°C° 0.2 mm 1 mps 749 mmHg 89%

    8 June, Monday

    Time Temperature Precipitation Wind Pressure Humidity
    00:00 +19°C° 0.2 mm 1 mps 749 mmHg 90%
    01:00 +19°C° 0 mm 1 mps 748 mmHg 91%
    02:00 +18°C° 0 mm 1 mps 748 mmHg 91%
    03:00 +18°C° 0 mm 1 mps 748 mmHg 92%
    04:00 +19°C° 0 mm 1 mps 748 mmHg 91%
    05:00 +20°C° 0 mm 1 mps 749 mmHg 90%
    06:00 +21°C° 0 mm 1 mps 749 mmHg 89%
    07:00 +22°C° 0.7 mm 1 mps 749 mmHg 85%
    08:00 +23°C° 0.7 mm 1 mps 748 mmHg 81%
    09:00 +25°C° 0.7 mm 1 mps 748 mmHg 78%
    10:00 +25°C° 1.8 mm 1 mps 748 mmHg 73%
    11:00 +26°C° 1.8 mm 1 mps 748 mmHg 69%
    12:00 +27°C° 1.8 mm 1 mps 748 mmHg 64%
    13:00 +27°C° 0.9 mm 1 mps 748 mmHg 64%
    14:00 +27°C° 0.9 mm 1 mps 748 mmHg 64%
    15:00 +27°C° 0.9 mm 1 mps 747 mmHg 63%
    16:00 +27°C° 0.6 mm 1 mps 747 mmHg 68%
    17:00 +26°C° 0.6 mm 1 mps 747 mmHg 73%
    18:00 +26°C° 0.6 mm 1 mps 747 mmHg 78%
    19:00 +24°C° 0.3 mm 1 mps 747 mmHg 82%
    20:00 +21°C° 0.3 mm 2 mps 747 mmHg 86%
    21:00 +20°C° 0.3 mm 2 mps 747 mmHg 89%
    22:00 +19°C° 0 mm 2 mps 747 mmHg 90%
    23:00 +18°C° 0 mm 2 mps 747 mmHg 91%

    9 June, Tuesday

    Time Temperature Precipitation Wind Pressure Humidity
    00:00 +18°C° 0 mm 2 mps 747 mmHg 92%
    01:00 +17°C° 0 mm 2 mps 747 mmHg 92%
    02:00 +17°C° 0 mm 2 mps 747 mmHg 93%
    03:00 +17°C° 0 mm 2 mps 747 mmHg 94%
    04:00 +17°C° 0 mm 2 mps 748 mmHg 93%
    05:00 +18°C° 0 mm 2 mps 748 mmHg 92%
    06:00 +18°C° 0 mm 3 mps 748 mmHg 91%
    07:00 +20°C° 0 mm 3 mps 748 mmHg 87%
    08:00 +21°C° 0 mm 3 mps 748 mmHg 84%
    09:00 +22°C° 0 mm 3 mps 748 mmHg 80%
    10:00 +24°C° 0.1 mm 3 mps 748 mmHg 77%
    11:00 +25°C° 0.1 mm 3 mps 749 mmHg 73%
    12:00 +26°C° 0.1 mm 3 mps 749 mmHg 69%
    13:00 +26°C° 0.2 mm 3 mps 749 mmHg 69%
    14:00 +26°C° 0.2 mm 3 mps 748 mmHg 68%
    15:00 +26°C° 0.2 mm 3 mps 748 mmHg 67%
    16:00 +26°C° 0.1 mm 3 mps 748 mmHg 71%
    17:00 +25°C° 0.1 mm 2 mps 748 mmHg 76%
    18:00 +25°C° 0.1 mm 2 mps 748 mmHg 80%
    19:00 +23°C° 0 mm 2 mps 748 mmHg 83%
    20:00 +20°C° 0 mm 2 mps 748 mmHg 86%
    21:00 +19°C° 0 mm 2 mps 748 mmHg 90%
    22:00 +18°C° 0 mm 2 mps 748 mmHg 91%
    23:00 +18°C° 0 mm 2 mps 748 mmHg 91%
    Show more